DW1806 Weather Reports


Display with metric or nautical units.
time (UTC)temp
F
wind
direction
speed
MPH
gust
MPH
rain 1hr
in
rain 24hr
in
rain mn
in
humidity
%
barometer
mb
20240227035529 44 140 1.0 0.0 0.00 0.00 0.00 69 1008.6
20240227035029 44 140 1.0 0.0 0.00 0.00 0.00 71 1008.6
20240227034530 43 141 1.0 0.0 0.00 0.00 0.00 72 1008.6
20240227034028 42 132 1.0 0.0 0.00 0.00 0.00 73 1008.6
20240227033528 42 131 0.0 0.0 0.00 0.00 0.00 73 1008.7
20240227033041 41 90 0.0 0.0 0.00 0.00 0.00 73 1008.8
20240227032527 41 90 0.0 0.0 0.00 0.00 0.00 73 1008.8
20240227032027 41 90 1.0 0.0 0.00 0.00 0.00 73 1008.8
20240227031527 41 90 0.0 0.0 0.00 0.00 0.00 73 1008.8
20240227031027 41 90 0.0 0.0 0.00 0.00 0.00 72 1008.8
20240227030526 41 90 0.0 0.0 0.00 0.00 0.00 72 1008.9
20240227030035 41 90 1.0 0.0 0.00 0.00 0.00 72 1009.1
20240227025527 41 90 1.0 0.0 0.00 0.00 0.00 72 1009.1
20240227025029 41 90 1.0 0.0 0.00 0.00 0.00 72 1009.2
20240227024532 41 90 1.0 0.0 0.00 0.00 0.00 72 1009.4
20240227024024 41 90 1.0 0.0 0.00 0.00 0.00 72 1009.3
20240227023524 41 90 1.0 0.0 0.00 0.00 0.00 72 1009.4
20240227023031 41 90 1.0 0.0 0.00 0.00 0.00 71 1009.3
20240227022528 41 90 1.0 0.0 0.00 0.00 0.00 71 1009.5
20240227022022 41 90 1.0 0.0 0.00 0.00 0.00 70 1009.6
20240227021535 41 90 1.0 0.0 0.00 0.00 0.00 70 1009.6
20240227021023 41 90 1.0 0.0 0.00 0.00 0.00 70 1009.7
20240227020522 41 90 1.0 0.0 0.00 0.00 0.00 70 1009.7
20240227020026 41 90 1.0 0.0 0.00 0.00 0.00 70 1009.7
20240227015523 41 90 1.0 0.0 0.00 0.00 0.00 69 1009.7
20240227015022 41 80 1.0 0.0 0.00 0.00 0.00 69 1009.8
20240227014534 41 80 2.0 0.0 0.00 0.00 0.00 69 1009.7
20240227014021 41 80 2.0 0.0 0.00 0.00 0.00 68 1009.8
20240227013522 41 80 3.0 0.0 0.00 0.00 0.00 68 1009.8
20240227013022 41 83 3.0 0.0 0.00 0.00 0.00 68 1009.9
20240227012521 41 76 2.0 0.0 0.00 0.00 0.00 67 1010.0
20240227012022 41 82 2.0 0.0 0.00 0.00 0.00 67 1010.1
20240227011521 41 91 3.0 0.0 0.00 0.00 0.00 67 1010.2
20240227011021 41 87 3.0 0.0 0.00 0.00 0.00 66 1010.2
20240227010521 41 80 3.0 0.0 0.00 0.00 0.00 66 1010.2
20240227010028 41 82 2.0 0.0 0.00 0.00 0.00 66 1010.3
20240227005523 41 80 2.0 0.0 0.00 0.00 0.00 65 1010.4
20240227005023 42 78 3.0 0.0 0.00 0.00 0.00 65 1010.4
20240227004524 42 84 3.0 0.0 0.00 0.00 0.00 64 1010.4
20240227004020 42 62 3.0 0.0 0.00 0.00 0.00 64 1010.4
20240227003520 42 79 3.0 0.0 0.00 0.00 0.00 63 1010.5
20240227003021 42 78 2.0 0.0 0.00 0.00 0.00 63 1010.6
20240227002519 42 67 3.0 0.0 0.00 0.00 0.00 63 1010.7
20240227002023 42 67 3.0 0.0 0.00 0.00 0.00 62 1010.7
20240227001520 42 68 2.0 0.0 0.00 0.00 0.00 62 1010.8
20240227001020 42 66 2.0 0.0 0.00 0.00 0.00 61 1010.8
20240227000519 42 62 3.0 0.0 0.00 0.00 0.00 61 1010.8
20240227000019 43 67 3.0 0.0 0.00 0.00 0.00 61 1010.9
20240226235519 43 89 2.0 0.0 0.00 0.00 0.00 60 1011.0
20240226235019 43 69 2.0 0.0 0.00 0.00 0.00 60 1011.0
20240226234519 43 43 2.0 0.0 0.00 0.00 0.00 60 1011.0
20240226234018 43 52 3.0 0.0 0.00 0.00 0.00 59 1011.1
20240226233518 44 47 3.0 0.0 0.00 0.00 0.00 59 1011.0
20240226233023 44 78 3.0 0.0 0.00 0.00 0.00 59 1011.1
20240226232518 44 80 2.0 0.0 0.00 0.00 0.00 58 1011.1
20240226232018 44 63 3.0 0.0 0.00 0.00 0.00 58 1011.1
20240226231520 45 57 3.0 0.0 0.00 0.00 0.00 57 1011.1
20240226231018 45 69 3.0 0.0 0.00 0.00 0.00 57 1011.2
20240226230520 45 65 3.0 0.0 0.00 0.00 0.00 57 1011.2
20240226230018 45 50 3.0 0.0 0.00 0.00 0.00 56 1011.2
20240226225518 46 86 3.0 0.0 0.00 0.00 0.00 56 1011.2
20240226225017 46 49 3.0 0.0 0.00 0.00 0.00 55 1011.2
20240226224534 46 68 3.0 0.0 0.00 0.00 0.00 55 1011.3
20240226224017 47 59 3.0 0.0 0.00 0.00 0.00 54 1011.3
20240226223516 47 46 3.0 0.0 0.00 0.00 0.00 53 1011.3
20240226223016 48 70 4.0 0.0 0.00 0.00 0.00 53 1011.4
20240226222517 48 63 3.0 0.0 0.00 0.00 0.00 53 1011.2
20240226222016 48 36 3.0 0.0 0.00 0.00 0.00 52 1011.3
20240226221520 49 67 4.0 0.0 0.00 0.00 0.00 52 1011.2
20240226221016 49 83 3.0 0.0 0.00 0.00 0.00 52 1011.3
20240226220517 49 75 4.0 0.0 0.00 0.00 0.00 51 1011.3
20240226220016 49 40 5.0 0.0 0.00 0.00 0.00 51 1011.3
20240226215516 49 50 6.0 0.0 0.00 0.00 0.00 50 1011.3
20240226215016 49 42 6.0 0.0 0.00 0.00 0.00 50 1011.3
20240226214516 50 30 6.0 0.0 0.00 0.00 0.00 49 1011.3
20240226214015 50 30 6.0 0.0 0.00 0.00 0.00 49 1011.4
20240226213518 51 28 5.0 0.0 0.00 0.00 0.00 48 1011.4
20240226213015 51 64 6.0 0.0 0.00 0.00 0.00 48 1011.5
20240226212514 52 22 6.0 0.0 0.00 0.00 0.00 47 1011.5
20240226212015 53 28 6.0 0.0 0.00 0.00 0.00 47 1011.5
20240226211521 55 10 5.0 0.0 0.00 0.00 0.00 45 1011.5
20240226211014 56 360 2.0 0.0 0.00 0.00 0.00 47 1011.5
20240226210515 56 324 2.0 0.0 0.00 0.00 0.00 47 1011.6
20240226210014 56 61 1.0 0.0 0.00 0.00 0.00 46 1011.6
20240226205514 56 64 2.0 0.0 0.00 0.00 0.00 44 1011.7
20240226205014 57 355 1.0 0.0 0.00 0.00 0.00 46 1011.7
20240226204516 57 355 2.0 0.0 0.00 0.00 0.00 46 1011.7
20240226204015 57 13 2.0 0.0 0.00 0.00 0.00 45 1011.8
20240226203512 57 315 1.0 0.0 0.00 0.00 0.00 45 1011.8
20240226203011 56 309 2.0 0.0 0.00 0.00 0.00 47 1012.0
20240226202511 56 236 2.0 0.0 0.00 0.00 0.00 45 1011.9
20240226202009 56 310 3.0 0.0 0.00 0.00 0.00 47 1011.9
20240226201508 55 290 2.0 0.0 0.00 0.00 0.00 47 1012.0
20240226201008 54 286 1.0 0.0 0.00 0.00 0.00 50 1011.9
20240226200509 54 186 1.0 0.0 0.00 0.00 0.00 49 1012.0
20240226200007 54 187 2.0 0.0 0.00 0.00 0.00 50 1012.0
20240226195507 54 190 3.0 0.0 0.00 0.00 0.00 50 1012.0
20240226195008 54 177 2.0 0.0 0.00 0.00 0.00 50 1012.0
20240226194520 54 182 2.0 0.0 0.00 0.00 0.00 49 1012.0
20240226194006 55 192 2.0 0.0 0.00 0.00 0.00 49 1012.0
20240226193505 55 305 2.0 0.0 0.00 0.00 0.00 51 1012.1
20240226193006 55 281 1.0 0.0 0.00 0.00 0.00 50 1012.1
20240226192504 54 257 1.0 0.0 0.00 0.00 0.00 53 1012.0
20240226192003 54 257 2.0 0.0 0.00 0.00 0.00 52 1012.1
20240226191504 53 238 2.0 0.0 0.00 0.00 0.00 53 1012.2
20240226191003 53 240 2.0 0.0 0.00 0.00 0.00 52 1012.1
20240226190503 53 118 2.0 0.0 0.00 0.00 0.00 53 1012.1
20240226190003 53 103 1.0 0.0 0.00 0.00 0.00 52 1012.2
20240226185502 53 36 1.0 0.0 0.00 0.00 0.00 55 1012.3
20240226185001 52 35 2.0 0.0 0.00 0.00 0.00 55 1012.3
20240226184559 51 36 3.0 0.0 0.00 0.00 0.00 55 1012.3
20240226184059 51 78 2.0 0.0 0.00 0.00 0.00 55 1012.4
20240226183559 51 84 1.0 0.0 0.00 0.00 0.00 54 1012.4
20240226183059 51 163 1.0 0.0 0.00 0.00 0.00 54 1012.4
20240226182558 51 189 1.0 0.0 0.00 0.00 0.00 55 1012.6
20240226182101 51 188 1.0 0.0 0.00 0.00 0.00 55 1012.8
20240226181601 50 190 1.0 0.0 0.00 0.00 0.00 56 1012.9
20240226181057 50 189 2.0 0.0 0.00 0.00 0.00 55 1012.9
20240226180557 50 172 1.0 0.0 0.00 0.00 0.00 56 1012.9
20240226180113 50 153 1.0 0.0 0.00 0.00 0.00 56 1013.0
20240226175558 50 186 2.0 0.0 0.00 0.00 0.00 57 1013.0
20240226175056 50 190 2.0 0.0 0.00 0.00 0.00 56 1013.1
20240226174559 50 171 2.0 0.0 0.00 0.00 0.00 57 1013.2
20240226174056 50 203 1.0 0.0 0.00 0.00 0.00 56 1013.2
20240226173556 51 233 0.0 0.0 0.00 0.00 0.00 56 1013.4
20240226173056 50 235 1.0 0.0 0.00 0.00 0.00 56 1013.4
20240226172557 50 267 2.0 0.0 0.00 0.00 0.00 56 1013.5
20240226172055 50 308 2.0 0.0 0.00 0.00 0.00 57 1013.7
20240226171555 49 306 3.0 0.0 0.00 0.00 0.00 58 1013.9
20240226171056 50 260 3.0 0.0 0.00 0.00 0.00 55 1014.0
20240226170556 51 315 2.0 0.0 0.00 0.00 0.00 57 1014.1
20240226170056 51 322 3.0 0.0 0.00 0.00 0.00 57 1014.1
20240226165554 50 304 3.0 0.0 0.00 0.00 0.00 56 1014.1
20240226165056 50 319 3.0 0.0 0.00 0.00 0.00 58 1014.3
20240226164607 50 360 2.0 0.0 0.00 0.00 0.00 58 1014.3
20240226164052 49 318 2.0 0.0 0.00 0.00 0.00 61 1014.4
20240226163552 48 240 3.0 0.0 0.00 0.00 0.00 60 1014.4
20240226163051 49 273 2.0 0.0 0.00 0.00 0.00 57 1014.4
20240226162552 50 17 2.0 0.0 0.00 0.00 0.00 60 1014.4
20240226162055 49 46 1.0 0.0 0.00 0.00 0.00 61 1014.3
20240226161552 47 305 1.0 0.0 0.00 0.00 0.00 63 1014.3
20240226161049 47 276 2.0 0.0 0.00 0.00 0.00 62 1014.3
20240226160551 48 276 2.0 0.0 0.00 0.00 0.00 59 1014.3
20240226160049 49 35 1.0 0.0 0.00 0.00 0.00 60 1014.2
20240226155548 49 32 1.0 0.0 0.00 0.00 0.00 60 1014.2
20240226155048 48 46 1.0 0.0 0.00 0.00 0.00 62 1014.2
20240226154545 47 319 3.0 0.0 0.00 0.00 0.00 63 1014.1
20240226154044 47 316 3.0 0.0 0.00 0.00 0.00 63 1014.1
20240226153544 47 42 2.0 0.0 0.00 0.00 0.00 62 1014.1
20240226153044 47 330 2.0 0.0 0.00 0.00 0.00 63 1014.1
20240226152544 46 321 3.0 0.0 0.00 0.00 0.00 63 1014.1
20240226152043 46 40 3.0 0.0 0.00 0.00 0.00 64 1014.2
20240226151544 46 326 3.0 0.0 0.00 0.00 0.00 64 1014.3
20240226151044 47 314 2.0 0.0 0.00 0.00 0.00 64 1014.3
20240226150542 46 334 1.0 0.0 0.00 0.00 0.00 65 1014.2
20240226150042 46 13 1.0 0.0 0.00 0.00 0.00 66 1014.2
20240226145542 45 15 1.0 0.0 0.00 0.00 0.00 69 1014.2
20240226145039 45 349 2.0 0.0 0.00 0.00 0.00 69 1014.2
20240226144549 44 5 2.0 0.0 0.00 0.00 0.00 70 1014.0
20240226144038 43 337 2.0 0.0 0.00 0.00 0.00 72 1014.0
20240226143535 43 313 3.0 0.0 0.00 0.00 0.00 73 1014.0
20240226143037 43 315 3.0 0.0 0.00 0.00 0.00 72 1013.9
20240226142532 43 306 2.0 0.0 0.00 0.00 0.00 73 1013.9
20240226142032 42 344 3.0 0.0 0.00 0.00 0.00 73 1014.0
20240226141536 42 360 3.0 0.0 0.00 0.00 0.00 75 1013.9
20240226141034 41 317 4.0 0.0 0.00 0.00 0.00 76 1013.9
20240226140531 41 317 3.0 0.0 0.00 0.00 0.00 76 1013.8
20240226140030 41 290 3.0 0.0 0.00 0.00 0.00 77 1013.7
20240226135533 40 308 4.0 0.0 0.00 0.00 0.00 78 1013.7
20240226135032 40 320 4.0 0.0 0.00 0.00 0.00 78 1013.7
20240226134529 40 326 4.0 0.0 0.00 0.00 0.00 79 1013.6
20240226134027 40 276 2.0 0.0 0.00 0.00 0.00 80 1013.6
20240226133527 39 290 2.0 0.0 0.00 0.00 0.00 80 1013.4
20240226133027 39 291 2.0 0.0 0.00 0.00 0.00 81 1013.3
20240226132526 38 303 2.0 0.0 0.00 0.00 0.00 82 1013.3
20240226132027 38 271 1.0 0.0 0.00 0.00 0.00 82 1013.3
20240226131524 37 258 0.0 0.0 0.00 0.00 0.00 83 1013.2
20240226131026 37 234 0.0 0.0 0.00 0.00 0.00 83 1013.1
20240226130523 36 234 0.0 0.0 0.00 0.00 0.00 83 1013.1
20240226130032 36 234 0.0 0.0 0.00 0.00 0.00 83 1013.0
20240226125521 36 234 0.0 0.0 0.00 0.00 0.00 83 1012.8
20240226125023 36 234 0.0 0.0 0.00 0.00 0.00 83 1012.7
20240226124520 35 234 0.0 0.0 0.00 0.00 0.00 82 1012.6
20240226124019 36 234 0.0 0.0 0.00 0.00 0.00 82 1012.5
20240226123522 36 234 0.0 0.0 0.00 0.00 0.00 82 1012.2
20240226123025 36 234 0.0 0.0 0.00 0.00 0.00 82 1012.0
20240226122515 36 234 0.0 0.0 0.00 0.00 0.00 82 1011.8
20240226122015 36 234 0.0 0.0 0.00 0.00 0.00 82 1011.7
20240226121525 36 234 0.0 0.0 0.00 0.00 0.00 81 1011.5
20240226121012 36 234 0.0 0.0 0.00 0.00 0.00 81 1011.4
20240226120512 36 234 0.0 0.0 0.00 0.00 0.00 81 1011.3
20240226120011 37 234 0.0 0.0 0.00 0.00 0.00 81 1011.1
20240226115509 37 234 0.0 0.0 0.00 0.00 0.00 81 1011.0
20240226115010 37 234 0.0 0.0 0.00 0.00 0.00 81 1011.0
20240226114509 37 234 0.0 0.0 0.00 0.00 0.00 81 1010.9
20240226114008 37 234 0.0 0.0 0.00 0.00 0.00 80 1010.9
20240226113508 37 234 0.0 0.0 0.00 0.00 0.00 80 1011.0
20240226113018 37 234 0.0 0.0 0.00 0.00 0.00 80 1011.0
20240226112509 37 234 0.0 0.0 0.00 0.00 0.00 79 1010.8
20240226112006 37 234 0.0 0.0 0.00 0.00 0.00 79 1010.9
20240226111505 37 234 0.0 0.0 0.00 0.00 0.00 79 1010.9
20240226111004 37 234 0.0 0.0 0.00 0.00 0.00 78 1010.7
20240226110504 38 234 0.0 0.0 0.00 0.00 0.00 78 1010.6
20240226110003 38 234 0.0 0.0 0.00 0.00 0.00 78 1010.6
20240226105502 38 234 0.0 0.0 0.00 0.00 0.00 77 1010.5
20240226105004 38 234 0.0 0.0 0.00 0.00 0.00 77 1010.6
20240226104601 38 234 0.0 0.0 0.00 0.00 0.00 77 1010.7
20240226104100 38 234 0.0 0.0 0.00 0.00 0.00 76 1010.6
20240226103604 39 234 0.0 0.0 0.00 0.00 0.00 76 1010.6
20240226103103 39 234 0.0 0.0 0.00 0.00 0.00 76 1010.6
20240226102558 39 234 1.0 0.0 0.00 0.00 0.00 76 1010.8
20240226102058 39 234 1.0 0.0 0.00 0.00 0.00 75 1010.7
20240226101558 39 234 2.0 0.0 0.00 0.00 0.00 75 1010.7
20240226101056 39 234 2.0 0.0 0.00 0.00 0.00 74 1010.7
20240226100558 40 235 2.0 0.0 0.00 0.00 0.00 74 1010.6
20240226100058 40 236 2.0 0.0 0.00 0.00 0.00 74 1010.5
20240226095553 40 259 3.0 0.0 0.00 0.00 0.00 73 1010.3
20240226095052 40 242 3.0 0.0 0.00 0.00 0.00 73 1010.3
20240226094552 40 229 4.0 0.0 0.00 0.00 0.00 72 1010.3
20240226094050 41 216 5.0 0.0 0.00 0.00 0.00 72 1010.2
20240226093549 41 231 4.0 0.0 0.00 0.00 0.00 71 1010.1
20240226093048 41 225 4.0 0.0 0.00 0.00 0.00 71 1010.1
20240226092547 41 198 4.0 0.0 0.00 0.00 0.00 70 1010.1
20240226092050 41 216 4.0 0.0 0.00 0.00 0.00 70 1010.0
20240226091557 41 228 3.0 0.0 0.00 0.00 0.00 70 1010.1
20240226091045 41 250 3.0 0.0 0.00 0.00 0.00 69 1010.1
20240226090547 42 201 4.0 0.0 0.00 0.00 0.00 69 1010.0
20240226090048 42 212 4.0 0.0 0.00 0.00 0.00 69 1009.9
20240226085543 42 226 5.0 0.0 0.00 0.00 0.00 68 1009.8
20240226085045 42 223 6.0 0.0 0.00 0.00 0.00 68 1009.8
20240226084548 42 221 5.0 0.0 0.00 0.00 0.00 68 1009.7
20240226084041 42 211 4.0 0.0 0.00 0.00 0.00 68 1009.7
20240226083542 42 208 5.0 0.0 0.00 0.00 0.00 67 1009.8
20240226083042 42 205 5.0 0.0 0.00 0.00 0.00 67 1009.8
20240226082541 42 211 5.0 0.0 0.00 0.00 0.00 67 1009.7
20240226082041 43 215 5.0 0.0 0.00 0.00 0.00 66 1009.7
20240226081540 43 223 5.0 0.0 0.00 0.00 0.00 66 1009.7
20240226081040 43 230 6.0 0.0 0.00 0.00 0.00 66 1009.7
20240226080539 43 232 7.0 0.0 0.00 0.00 0.00 65 1009.9
20240226080058 43 209 7.0 0.0 0.00 0.00 0.00 65 1009.8
20240226075539 43 207 7.0 0.0 0.00 0.00 0.00 65 1010.0
20240226075038 43 240 7.0 0.0 0.00 0.00 0.00 64 1009.9
20240226074537 43 206 8.0 0.0 0.00 0.00 0.00 64 1009.8
20240226074036 43 217 7.0 0.0 0.00 0.00 0.00 64 1009.8
20240226073537 43 234 5.0 0.0 0.00 0.00 0.00 63 1009.8
20240226073034 43 234 6.0 0.0 0.00 0.00 0.00 63 1009.8
20240226072535 43 205 6.0 0.0 0.00 0.00 0.00 62 1009.8
20240226072034 43 197 7.0 0.0 0.00 0.00 0.00 62 1009.7
20240226071552 44 214 7.0 0.0 0.00 0.00 0.00 61 1009.8
20240226071034 44 230 6.0 0.0 0.00 0.00 0.00 60 1009.8
20240226070533 44 216 5.0 0.0 0.00 0.00 0.00 60 1009.8
20240226070033 44 246 6.0 0.0 0.00 0.00 0.00 59 1009.8
20240226065532 44 231 6.0 0.0 0.00 0.00 0.00 59 1009.8
20240226065031 44 227 5.0 0.0 0.00 0.00 0.00 59 1009.8
20240226064531 43 171 5.0 0.0 0.00 0.00 0.00 59 1009.8
20240226064028 43 202 5.0 0.0 0.00 0.00 0.00 59 1009.7
20240226063528 43 228 4.0 0.0 0.00 0.00 0.00 60 1009.7
20240226063027 42 223 3.0 0.0 0.00 0.00 0.00 60 1009.8
20240226062528 42 215 4.0 0.0 0.00 0.00 0.00 60 1009.8
20240226062026 42 223 4.0 0.0 0.00 0.00 0.00 60 1009.8
20240226061527 42 232 4.0 0.0 0.00 0.00 0.00 60 1009.7
20240226061026 42 231 3.0 0.0 0.00 0.00 0.00 60 1009.7
20240226060525 42 197 3.0 0.0 0.00 0.00 0.00 60 1009.6
20240226060025 42 221 4.0 0.0 0.00 0.00 0.00 60 1009.6
20240226055524 42 229 4.0 0.0 0.00 0.00 0.00 60 1009.7
20240226055023 42 217 4.0 0.0 0.00 0.00 0.00 61 1009.6
20240226054523 42 188 3.0 0.0 0.00 0.00 0.00 61 1009.5
20240226054022 42 228 3.0 0.0 0.00 0.00 0.00 62 1009.6
20240226053523 42 236 4.0 0.0 0.00 0.00 0.00 62 1009.5
20240226053026 42 220 3.0 0.0 0.00 0.00 0.00 63 1009.5
20240226052520 42 225 3.0 0.0 0.00 0.00 0.00 63 1009.5
20240226052020 42 200 3.0 0.0 0.00 0.00 0.00 63 1009.5
20240226051523 42 230 3.0 0.0 0.00 0.00 0.00 63 1009.5
20240226051021 42 221 4.0 0.0 0.00 0.00 0.00 63 1009.5
20240226050518 42 224 4.0 0.0 0.00 0.00 0.00 62 1009.5
20240226050021 42 218 4.0 0.0 0.00 0.00 0.00 62 1009.4
20240226045519 43 248 5.0 0.0 0.00 0.00 0.00 61 1009.6
20240226045017 43 206 5.0 0.0 0.00 0.00 0.00 61 1009.6
20240226044533 43 221 5.0 0.0 0.00 0.00 0.00 60 1009.6
20240226044015 43 205 5.0 0.0 0.00 0.00 0.00 59 1009.6
20240226043516 43 223 5.0 0.0 0.00 0.00 0.00 59 1009.6
20240226043024 43 223 5.0 0.0 0.00 0.00 0.00 59 1009.7
20240226042515 43 226 6.0 0.0 0.00 0.00 0.00 59 1009.6
20240226042015 43 217 6.0 0.0 0.00 0.00 0.00 59 1009.7
20240226041514 43 186 7.0 0.0 0.00 0.00 0.00 59 1009.7
20240226041014 43 219 6.0 0.0 0.00 0.00 0.00 58 1009.6
20240226040516 43 189 5.0 0.0 0.00 0.00 0.00 56 1009.6
20240226040014 43 278 6.0 0.0 0.00 0.00 0.00 54 1009.6